Location: *
(2.5500°S, 65.9667°W)
Time: 06:12:57
(UTC+00:00)

Explorer 7 - Pass Details

Date: 19 April 2024
Orbit: 467 x 625 km, 50.3° (Epoch: 26 May)

Event Time Altitude Azimuth Distance (km) Brightness Sun altitude
Rises 01:12:32 0° 316° (NW) 2,646 10.9 -42.0°
Enters shadow 01:12:36 - 316° (NW) 2,619 10.9 -42.0°
Reaches altitude 10° 01:14:49 10° 312° (NW) 1,732 - -42.6°
Maximum altitude 01:18:40 55° 233° (SW) 598 - -43.5°
Drops below altitude 10° 01:22:21 10° 155° (SSE) 1,661 - -44.4°
Sets 01:24:30 0° 150° (SSE) 2,525 - -44.9°
